Location: The Jewett Observatory
(46.7288°N, 117.1525°W)
Time: 04:21:59
(UTC-07:00)

Cosmos 1633 - Visible Passes

Search period start: 22 July 2014 00:00
Search period end: 01 August 2014 00:00
Orbit: 498 x 520 km, 82.5° (Epoch: 21 July)

Date Brightness Start Highest point End Pass type
(mag) Time Alt. Az. Time Alt. Az. Time Alt. Az.
22 Jul 3.0 01:23:52 55° WNW 01:23:52 55° WNW 01:27:30 10° N visible
23 Jul 2.8 01:06:54 68° NW 01:06:54 68° NW 01:10:27 10° N visible
24 Jul 2.8 00:49:55 71° NNE 00:49:55 71° NNE 00:53:22 10° N visible
25 Jul 3.0 00:32:56 59° NE 00:32:56 59° NE 00:36:15 10° NNE visible
25 Jul 5.3 02:07:48 10° WNW 02:08:31 11° WNW 02:09:29 10° NW visible
26 Jul 3.3 00:15:56 47° ENE 00:15:56 47° ENE 00:19:06 10° NNE visible
26 Jul 5.1 01:50:48 13° WNW 01:51:17 13° WNW 01:53:15 10° NW visible
26 Jul 3.7 23:58:55 37° ENE 23:58:55 37° ENE 00:01:55 10° NNE visible
27 Jul 4.9 01:33:47 16° WNW 01:34:05 17° WNW 01:36:36 10° NNW visible
27 Jul 4.0 23:41:53 29° ENE 23:41:53 29° ENE 23:44:40 10° NNE visible
28 Jul 4.6 01:16:45 20° WNW 01:16:53 20° WNW 01:19:49 10° NNW visible
28 Jul 4.3 23:24:51 24° ENE 23:24:51 24° ENE 23:27:23 10° NNE visible
29 Jul 4.4 00:59:42 25° WNW 00:59:43 25° WNW 01:02:57 10° NNW visible
29 Jul 4.5 23:07:47 19° ENE 23:07:47 19° ENE 23:10:01 10° NE visible
30 Jul 4.1 00:42:39 31° WNW 00:42:39 31° WNW 00:46:01 10° N visible
30 Jul 4.8 22:50:43 16° ENE 22:50:43 16° ENE 22:52:33 10° NE visible
31 Jul 3.7 00:25:35 39° WNW 00:25:35 39° WNW 00:29:02 10° N visible
31 Jul 5.0 22:33:38 13° ENE 22:33:38 13° ENE 22:34:54 10° ENE visible
